Change the Weather History Date:

Thursday, September 26, 2013

  Actual Average (KAQP) Record (KAQP)
Temperature  
Mean Temperature 74 °F -  
Max Temperature 89 °F 65 °F 87 °F (2008)
Min Temperature 60 °F 39 °F 30 °F (2012)
Cooling Degree Days 10    
Growing Degree Days 24 (Base 50)    
Moisture  
Dew Point 57 °F    
Average Humidity 59    
Maximum Humidity 82    
Minimum Humidity 31    
Precipitation  
Precipitation 0.00 in - - ()
Sea Level Pressure  
Sea Level Pressure 29.73 in    
Wind  
Wind Speed 14 mph (SSE)    
Max Wind Speed 24 mph    
Max Gust Speed 32 mph    
Visibility 10 miles    
Events      
Averages and records for this station are not official NWS values.
T = Trace of Precipitation, MM = Missing Value Source: NWS Daily Summary

Daily Weather History Graph

Daily Weather History Graph

Search for Another Location

Airport or City:

Trip Planner

Search our weather history database for the weather conditions in past years. The results will help you decide how hot, cold, wet, or windy it might be!

Date:

Astronomy

Sep. 26, 2013 Rise Set
Actual Time 7:16 AM CDT 7:14 PM CDT
Civil Twilight 6:47 AM CDT 7:43 PM CDT
Nautical Twilight 6:13 AM CDT 8:17 PM CDT
Astronomical Twilight 5:38 AM CDT 8:52 PM CDT
Moon No Moon Rise 2:23 PM CDT (9/26)
Length of Visible Light 12h 55m
Length of Day
11h 57m
Waning Gibbous, 54% of the Moon is Illuminated
Sep 26
Waning Gibbous
Sep 26
Last Quarter
Oct 4
New
Oct 11
First Quarter
Oct 18
Full

Hourly Weather History & Observations

Time (CDT) Temp. Heat Index Dew Point Humidity Pressure Visibility Wind Dir Wind Speed Gust Speed Precip Events Conditions
12:14 AM 64.4 °F - 53.6 °F 68% 29.79 in 10.0 mi SE 11.5 mph - N/A   Clear
12:33 AM 64.4 °F - 53.6 °F 68% 29.79 in 10.0 mi SE 11.5 mph 16.1 mph N/A   Clear
12:54 AM 64.4 °F - 53.6 °F 68% 29.78 in 10.0 mi SE 11.5 mph - N/A   Clear
1:14 AM 64.4 °F - 53.6 °F 68% 29.78 in 10.0 mi SE 13.8 mph - N/A   Clear
1:33 AM 64.4 °F - 55.4 °F 73% 29.77 in 10.0 mi SE 12.7 mph 17.3 mph N/A   Clear
1:54 AM 62.6 °F - 55.4 °F 77% 29.77 in 10.0 mi SE 11.5 mph - N/A   Clear
2:14 AM 62.6 °F - 55.4 °F 77% 29.77 in 10.0 mi SE 9.2 mph - N/A   Clear
2:33 AM 62.6 °F - 55.4 °F 77% 29.77 in 10.0 mi SE 11.5 mph 16.1 mph N/A   Clear
2:54 AM 62.6 °F - 55.4 °F 77% 29.76 in 10.0 mi SE 12.7 mph 17.3 mph N/A   Clear
3:14 AM 62.6 °F - 55.4 °F 77% 29.76 in 10.0 mi SE 12.7 mph 19.6 mph N/A   Clear
3:33 AM 62.6 °F - 55.4 °F 77% 29.76 in 10.0 mi SE 12.7 mph - N/A   Scattered Clouds
3:54 AM 62.6 °F - 55.4 °F 77% 29.75 in 10.0 mi SE 11.5 mph - N/A   Scattered Clouds
4:14 AM 62.6 °F - 55.4 °F 77% 29.74 in 10.0 mi SE 13.8 mph 18.4 mph N/A   Scattered Clouds
4:33 AM 62.6 °F - 55.4 °F 77% 29.74 in 10.0 mi SE 13.8 mph - N/A   Clear
4:54 AM 60.8 °F - 55.4 °F 82% 29.74 in 10.0 mi SE 13.8 mph 20.7 mph N/A   Clear
5:14 AM 60.8 °F - 55.4 °F 82% 29.73 in 10.0 mi SE 13.8 mph 19.6 mph N/A   Clear
5:33 AM 60.8 °F - 55.4 °F 82% 29.73 in 10.0 mi SE 12.7 mph 20.7 mph N/A   Clear
5:54 AM 60.8 °F - 55.4 °F 82% 29.73 in 10.0 mi SE 13.8 mph - N/A   Clear
6:14 AM 60.8 °F - 55.4 °F 82% 29.72 in 10.0 mi SE 13.8 mph 19.6 mph N/A   Clear
6:33 AM 60.8 °F - 55.4 °F 82% 29.73 in 10.0 mi SE 15.0 mph 18.4 mph N/A   Clear
6:54 AM 60.8 °F - 55.4 °F 82% 29.73 in 10.0 mi SE 16.1 mph 20.7 mph N/A   Clear
7:14 AM 62.6 °F - 57.2 °F 82% 29.73 in 10.0 mi SE 17.3 mph 23.0 mph N/A   Clear
7:33 AM 62.6 °F - 57.2 °F 82% 29.74 in 10.0 mi SE 17.3 mph 24.2 mph N/A   Clear
7:54 AM 62.6 °F - 57.2 °F 82% 29.74 in 10.0 mi SE 13.8 mph 21.9 mph N/A   Clear
8:14 AM 62.6 °F - 57.2 °F 82% 29.74 in 10.0 mi SSE 15.0 mph 20.7 mph N/A   Clear
8:33 AM 62.6 °F - 57.2 °F 82% 29.74 in 10.0 mi SE 17.3 mph 21.9 mph N/A   Clear
8:54 AM 64.4 °F - 57.2 °F 77% 29.74 in 10.0 mi SE 16.1 mph 26.5 mph N/A   Clear
9:14 AM 64.4 °F - 57.2 °F 77% 29.74 in 10.0 mi SSE 13.8 mph 20.7 mph N/A   Clear
9:33 AM 66.2 °F - 59.0 °F 78% 29.74 in 10.0 mi SSE 16.1 mph 23.0 mph N/A   Clear
9:54 AM 68.0 °F - 59.0 °F 73% 29.73 in 10.0 mi SSE 19.6 mph 28.8 mph N/A   Clear
10:14 AM 71.6 °F - 60.8 °F 69% 29.73 in 10.0 mi SSE 21.9 mph 32.2 mph N/A   Clear
10:33 AM 73.4 °F - 60.8 °F 65% 29.72 in 10.0 mi SSE 23.0 mph 27.6 mph N/A   Clear
10:54 AM 75.2 °F - 60.8 °F 61% 29.73 in 10.0 mi SSE 21.9 mph 28.8 mph N/A   Clear
11:13 AM 77.0 °F - 60.8 °F 57% 29.72 in 10.0 mi SSE 24.2 mph 31.1 mph N/A   Clear
11:34 AM 78.8 °F - 59.0 °F 51% 29.72 in 10.0 mi SSE 24.2 mph 32.2 mph N/A   Clear
11:53 AM 80.6 °F 80.8 °F 57.2 °F 45% 29.71 in 10.0 mi SSE 20.7 mph 27.6 mph N/A   Clear
12:14 PM 82.4 °F 82.0 °F 57.2 °F 42% 29.70 in 10.0 mi South 18.4 mph 31.1 mph N/A   Clear
12:33 PM 82.4 °F 81.7 °F 55.4 °F 39% 29.70 in 10.0 mi South 18.4 mph 31.1 mph N/A   Clear
12:54 PM 84.2 °F 83.0 °F 55.4 °F 37% 29.70 in 10.0 mi South 18.4 mph 26.5 mph N/A   Clear
1:14 PM 84.2 °F 83.0 °F 55.4 °F 37% 29.70 in 10.0 mi SSE 16.1 mph 28.8 mph N/A   Clear
1:33 PM 86.0 °F 84.2 °F 53.6 °F 33% 29.69 in 10.0 mi South 23.0 mph 32.2 mph N/A   Clear
1:54 PM 86.0 °F 84.5 °F 55.4 °F 35% 29.69 in 10.0 mi South 21.9 mph 32.2 mph N/A   Clear
2:14 PM 87.8 °F 86.1 °F 55.4 °F 33% 29.69 in 10.0 mi SSW 17.3 mph 28.8 mph N/A   Clear
2:33 PM 87.8 °F 86.1 °F 55.4 °F 33% 29.69 in 10.0 mi SSW 21.9 mph 31.1 mph N/A   Clear
2:54 PM 87.8 °F 86.1 °F 55.4 °F 33% 29.69 in 10.0 mi SSW 13.8 mph 28.8 mph N/A   Clear
3:14 PM 87.8 °F 86.1 °F 55.4 °F 33% 29.69 in 10.0 mi South 24.2 mph - N/A   Clear
3:33 PM 87.8 °F 86.1 °F 55.4 °F 33% 29.69 in 10.0 mi South 20.7 mph 27.6 mph N/A   Clear
3:54 PM 87.8 °F 86.1 °F 55.4 °F 33% 29.69 in 10.0 mi South 20.7 mph 28.8 mph N/A   Clear
4:14 PM 87.8 °F 86.1 °F 55.4 °F 33% 29.69 in 10.0 mi South 18.4 mph 26.5 mph N/A   Clear
4:33 PM 89.6 °F 87.7 °F 55.4 °F 31% 29.69 in 10.0 mi South 18.4 mph 24.2 mph N/A   Clear
4:54 PM 87.8 °F 86.1 °F 55.4 °F 33% 29.69 in 10.0 mi SSW 16.1 mph 23.0 mph N/A   Clear
5:13 PM 87.8 °F 86.1 °F 55.4 °F 33% 29.69 in 10.0 mi SSW 15.0 mph 23.0 mph N/A   Clear
5:34 PM 87.8 °F 86.1 °F 55.4 °F 33% 29.69 in 10.0 mi SSW 13.8 mph 18.4 mph N/A   Clear
5:54 PM 87.8 °F 86.1 °F 55.4 °F 33% 29.70 in 10.0 mi South 10.4 mph - N/A   Clear
6:13 PM 86.0 °F 84.5 °F 55.4 °F 35% 29.70 in 10.0 mi South 10.4 mph 16.1 mph N/A   Clear
6:34 PM 84.2 °F 83.5 °F 57.2 °F 40% 29.70 in 10.0 mi South 9.2 mph - N/A   Clear
6:53 PM 82.4 °F 82.0 °F 57.2 °F 42% 29.71 in 10.0 mi South 6.9 mph - N/A   Clear
7:14 PM 80.6 °F 80.8 °F 57.2 °F 45% 29.72 in 10.0 mi South 5.8 mph - N/A   Scattered Clouds
7:33 PM 80.6 °F 80.8 °F 57.2 °F 45% 29.72 in 10.0 mi South 5.8 mph - N/A   Mostly Cloudy
7:54 PM - - - N/A% 29.72 in 10.0 mi SSE 5.8 mph - N/A   Mostly Cloudy
8:13 PM 77.0 °F - 59.0 °F 54% 29.73 in 10.0 mi SSE 5.8 mph - N/A   Mostly Cloudy
8:34 PM 75.2 °F - 59.0 °F 57% 29.74 in 10.0 mi SSE 6.9 mph - N/A   Scattered Clouds
8:54 PM 75.2 °F - 57.2 °F 53% 29.75 in 10.0 mi SE 5.8 mph - N/A   Mostly Cloudy
9:13 PM 75.2 °F - 59.0 °F 57% 29.75 in 10.0 mi SSE 6.9 mph - N/A   Overcast
9:34 PM 77.0 °F - 60.8 °F 57% 29.76 in 10.0 mi SSE 10.4 mph - N/A   Overcast
9:50 PM 77.0 °F - 59.0 °F 54% 29.76 in 10.0 mi SSE 10.4 mph - N/A   Overcast
10:14 PM 77.0 °F - 59.0 °F 54% 29.76 in 10.0 mi SSE 10.4 mph - N/A   Mostly Cloudy
10:33 PM 77.0 °F - 59.0 °F 54% 29.76 in 10.0 mi SSE 10.4 mph 16.1 mph N/A   Mostly Cloudy
10:54 PM 75.2 °F - 57.2 °F 53% 29.77 in 10.0 mi North - - N/A   Scattered Clouds
11:13 PM 73.4 °F - 59.0 °F 61% 29.77 in 10.0 mi SE 9.2 mph - N/A   Clear
11:33 PM 73.4 °F - 59.0 °F 61% 29.77 in 10.0 mi SE 8.1 mph - N/A   Clear
11:54 PM 73.4 °F - 60.8 °F 65% 29.77 in 10.0 mi SE 10.4 mph - N/A   Clear